Regional Weather Roundup
Issued by NWS Little Rock, AR

Home | Current Version | Previous Version | Graphics & Text | Print | Product List | Glossary On
Versions: 1 2 3 4 5 6 7 8 9 10 11 12 13 14 15 16 17 18 19 20 21 22 23 24 25 26 27
000
ASUS44 KLZK 302305
RWRLZK

WEATHER ROUNDUP FOR ARKANSAS
NATIONAL WEATHER SERVICE LITTLE ROCK AR
600 PM CDT MON MAY 30 2016

NOTE: "FAIR" INDICATES FEW OR NO CLOUDS BELOW 12,000 FEET WITH NO
SIGNIFICANT WEATHER AND/OR OBSTRUCTIONS TO VISIBILITY.

ARZ001-003-010-029-310000-
NORTHWEST ARKANSAS

CITY           SKY/WX    TMP DP  RH WIND       PRES   REMARKS
FAYETTEVILLE   CLOUDY    67  67 100 E3        30.01S
FORT SMITH     CLOUDY    75  65  70 E8        29.96F
HARRISON       LGT RAIN  69  66  90 W3        30.05R
BENTONVILLE    CLOUDY    70  63  78 SE7       30.02S
ROGERS         CLOUDY    68  66  93 E5        30.02F
SILOAM SPGS    CLOUDY    68  59  73 E5        30.01F
HIGHFILL       LGT RAIN  69  66  90 E3        30.01F
SPRINGDALE     MOSUNNY   68  66  94 CALM      30.04S
$$

ARZ004-005-016-310000-
NORTH CENTRAL ARKANSAS

CITY           SKY/WX    TMP DP  RH WIND       PRES   REMARKS
BATESVILLE     CLOUDY    75  68  78 E7        30.00S THUNDER
FLIPPIN        CLOUDY   N/A N/A N/A CALM      29.99F
MTN HOME       CLOUDY    71  64  78 E7        30.01F
$$

ARZ040-041-310000-
WEST CENTRAL ARKANSAS

CITY           SKY/WX    TMP DP  RH WIND       PRES   REMARKS
MENA           PTSUNNY   77  70  78 E8        29.97F
MOUNT IDA      CLOUDY    69  66  90 VRB3      29.96S
$$

ARZ009-017-025-026-028-310000-
NORTHEAST ARKANSAS

CITY           SKY/WX    TMP DP  RH WIND       PRES   REMARKS
CORNING        LGT RAIN  84  64  51 CALM      29.98F HX  86
JONESBORO        N/A     85  65  51 NE6       29.96F HX  86
NEWPORT        TSTM      71  68  90 W15G24    30.00R
WALNUT RIDGE   CLOUDY    81  66  61 W7        29.98S
BLYTHEVILLE    MOSUNNY   87  57  35 E3        29.96F HX  86
$$

ARZ022-023-033-042-044-310000-
CENTRAL ARKANSAS

CITY           SKY/WX    TMP DP  RH WIND       PRES   REMARKS
LITTLE ROCK    CLOUDY    77  71  82 CALM      29.97R
N LITTLE ROCK    N/A     75  70  85 N3        29.95S
JACKSONVILLE   CLOUDY    75  70  85 NW2       29.96S
SEARCY         CLOUDY    81  71  71 CALM      29.96F HX  85
HOT SPRINGS    CLOUDY    77  64  64 NE9       29.96F
RUSSELLVILLE   CLOUDY    74  69  85 CALM      29.97F
CLINTON        FAIR      77  72  83 CALM      29.99F
$$

ARZ036-310000-
EAST ARKANSAS

CITY           SKY/WX    TMP DP  RH WIND       PRES   REMARKS
WEST MEMPHIS   PTSUNNY   88  61  40 NE6       29.94F HX  88
$$

ARZ050-053-066-070-073-310000-
SOUTHWEST ARKANSAS

CITY           SKY/WX    TMP DP  RH WIND       PRES   REMARKS
ARKADELPHIA    MOCLDY    70  68  93 CALM      29.97S
CAMDEN         CLOUDY    70  66  88 CALM      29.95F
TEXARKANA      MOSUNNY   79  67  66 E6        29.93F
EL DORADO      CLOUDY    74  68  81 E5        29.95F
DE QUEEN       SUNNY     82  70  66 S5        29.91F HX  86
$$

ARZ056-057-069-310000-
SOUTHEAST ARKANSAS

CITY           SKY/WX    TMP DP  RH WIND       PRES   REMARKS
PINE BLUFF     TSTM      71  65  81 SW30G40   29.96R
STUTTGART      CLOUDY    84  63  48 E7        29.95S HX  85
MONTICELLO     PTSUNNY   84  72  67 SW3       29.94F HX  89

$$






USA.gov is the U.S. government's official web portal to all federal, state and local government web resources and services.